sat.trackr.live / text

‹ back to catalog

STARLINK-33846

NORAD 63780 · 2025-091F

PAYLOAD ACTIVE UNKNOWN

§ Identity

Operator
Country
US
Launch date
2025-05-02
Launch site
AFETR
Launch vehicle
Mass (kg)
RCS (m²)

Purposes: comms

External: N2YO · Heavens-Above · Gunter

§ Orbital elements

Epoch: 2026-09-19T17:16:52.317408Z

Period
94.27 min
Inclination
42.9979°
Eccentricity
0.0001044
Mean motion
15.27564852 rev/d
Perigee alt
482.4 km
Apogee alt
483.8 km
Semi-major
6,861.2 km
B*
5.9839e-4
RAAN
37.0031°
Arg perigee
292.0203°
Mean anomaly
68.0538°
Rev number
7,862

§ Raw data

STARLINK-338461 63780U 25091F   26262.72004997  .00016233  00000+0  59839-3 0  99982 63780  42.9979  37.0031 0001044 292.0203  68.0538 15.27564852 78625

JSON: /api/v1/satellites/63780 · /tle

For live sub-satellite position, see the globe view (requires WebGL).

§ Visibility from observer

Set your observer location to see the next 7 days of passes ≥ 10°. The values pass through the URL so the page stays shareable.

No JS? Fill the form by hand. The geolocation button needs JavaScript.